Location: Brownlee
(50.7397°N, 106.0159°W)
Time: 07:25:32
(UTC+00:00)

Envisat - Pass Details

Date: 06 December 2022
Orbit: 763 x 765 km, 98.2° (Epoch: 04 February)

Event Time Altitude Azimuth Distance (km) Brightness Sun altitude
Rises 23:47:54 0° 215° (SW) 3,222 7.5 -7.3°
Reaches altitude 10° 23:51:10 10° 237° (WSW) 2,302 7.2 -7.8°
Maximum altitude 23:54:08 15° 273° (W) 1,953 6.1 -8.2°
Drops below altitude 10° 23:57:07 10° 309° (NW) 2,313 5.8 -8.7°
Sets 00:00:25 0° 332° (NNW) 3,246 6.3 -9.1°
